Culiacan, Mexico

1:21 PM MST on February 19, 2018 (GMT -0700)
Culiacan International

Weather History for MMCL - November, 2012

Change the Weather History Date:

Friday, November 2, 2012

  Actual Average Record
Temperature  
Mean Temperature 78 °F -  
Max Temperature 93 °F 92 °F 102 °F (1999)
Min Temperature 64 °F 67 °F 57 °F (2004)
Cooling Degree Days 14    
Growing Degree Days 28 (Base 50)    
Moisture  
Dew Point 66 °F    
Average Humidity 63    
Maximum Humidity 100    
Minimum Humidity 21    
Precipitation  
Precipitation 0.00 in - - ()
Sea Level Pressure  
Sea Level Pressure 29.92 in    
Wind  
Wind Speed 2 mph ()    
Max Wind Speed 17 mph    
Max Gust Speed -    
Visibility 9.7 miles    
Events      
Averages and records for this station are not official NWS values.
T = Trace of Precipitation, MM = Missing Value Source: Averaged Metar Reports

Daily Weather History Graph

Daily Weather History Graph

Search for Another Location

Airport or City:

Trip Planner

Search our weather history database for the weather conditions in past years. The results will help you decide how hot, cold, wet, or windy it might be!

Date:

Astronomy

Nov. 02, 2012 Rise Set
Actual Time 6:17 AM MST 5:28 PM MST
Civil Twilight 5:54 AM MST 5:52 PM MST
Nautical Twilight 5:27 AM MST 6:19 PM MST
Astronomical Twilight 5:00 AM MST 6:46 PM MST
Moon 8:30 PM MST (11/2) 9:28 AM MST (11/2)
Length of Visible Light 11h 57m
Length of Day
11h 10m
Waning Gibbous, 86% of the Moon is Illuminated
Nov 2
Waning Gibbous
Nov 6
Last Quarter
Nov 13
New
Nov 20
First Quarter
Nov 28
Full

Hourly Weather History & Observations

Time (MST) Temp. Heat Index Dew Point Humidity Pressure Visibility Wind Dir Wind Speed Gust Speed Precip Events Conditions
1:43 AM 71.6 °F - 71.6 °F 100% 29.91 in 10.0 mi Calm Calm - N/A   Clear
2:47 AM 69.8 °F - 69.8 °F 100% 29.91 in 10.0 mi Calm Calm - N/A   Clear
5:47 AM 71.6 °F - 68.0 °F 88% 29.93 in 10.0 mi Calm Calm - N/A   Scattered Clouds
6:44 AM 71.6 °F - 68.0 °F 88% 29.94 in 10.0 mi Calm Calm - N/A   Scattered Clouds
7:35 AM 70 °F - 66 °F 83% 29.99 in 10 mi South 2.2 mph - -   Haze
7:40 AM 73.4 °F - 68.0 °F 83% 29.94 in 10.0 mi Calm Calm - N/A   Scattered Clouds
8:40 AM 77.0 °F - 71.6 °F 83% 29.97 in 10.0 mi Calm Calm - N/A   Scattered Clouds
9:44 AM 82.4 °F 85.4 °F 68.0 °F 62% 29.97 in 10.0 mi Calm Calm - N/A   Clear
10:45 AM 88 °F - 66 °F 38% 30.01 in 10 mi SW 2.2 mph - -  
10:45 AM 84.2 °F 88.4 °F 69.8 °F 62% 29.97 in 10.0 mi Calm Calm - N/A   Clear
11:46 AM 86.0 °F 89.4 °F 68.0 °F 55% 29.93 in 10.0 mi Calm Calm - N/A   Partly Cloudy
12:41 PM 91.4 °F 92.1 °F 62.6 °F 38% 29.89 in 10.0 mi East 5.8 mph - N/A   Partly Cloudy
1:45 PM 93 °F - 64 °F 28% 29.92 in 10 mi SW 2.2 mph - -  
1:47 PM 93.2 °F 93.3 °F 60.8 °F 34% 29.85 in 10.0 mi SSW 4.6 mph - N/A   Partly Cloudy
2:41 PM 93.2 °F 93.3 °F 60.8 °F 34% 29.85 in 10.0 mi WSW 13.8 mph - N/A   Scattered Clouds
3:41 PM 91.4 °F 92.1 °F 62.6 °F 38% 29.84 in 10.0 mi WSW 17.3 mph - N/A   Mostly Cloudy
4:42 PM 87.8 °F 89.4 °F 64.4 °F 46% 29.83 in 10.0 mi SW 11.5 mph - N/A   Partly Cloudy
4:45 PM 89 °F - 58 °F 25% 29.92 in 10 mi SW 2.2 mph - -  
5:40 PM 82.4 °F 84.6 °F 66.2 °F 58% 29.86 in 10.0 mi WNW 11.5 mph - N/A   Partly Cloudy
6:40 PM 80.6 °F 83.2 °F 68.0 °F 65% 29.87 in 10.0 mi WNW 5.8 mph - N/A   Partly Cloudy
7:40 PM 93 °F - 57 °F 21% 29.90 in 10 mi West 4.5 mph - -   Haze
7:40 PM 77.0 °F - 66.2 °F 69% 29.90 in 10.0 mi Calm Calm - N/A   Clear
7:45 PM 75 °F - 67 °F 71% 29.97 in 6 mi Calm Calm - -  
8:40 PM 77.0 °F - 66.2 °F 69% 29.91 in 10.0 mi Calm Calm - N/A   Clear
9:40 PM 75.2 °F - 68.0 °F 78% 29.92 in 10.0 mi Calm Calm - N/A   Clear
10:40 PM 75.2 °F - 68.0 °F 78% 29.89 in 10.0 mi Calm Calm - N/A   Clear
10:45 PM 71 °F - 66 °F 81% 29.99 in 6 mi Calm Calm - -  
11:40 PM 75.2 °F - 68.0 °F 78% 29.92 in 10.0 mi Calm Calm - N/A   Clear